EW4229 Weather Reports


Display with metric or nautical units.
time (UTC)temp
F
wind
direction
speed
MPH
gust
MPH
rain 1hr
in
rain 24hr
in
rain mn
in
humidity
%
barometer
mb
20260906180050 75 70 3.0 10.0 0.00 0.00 0.00 67 1015.8
20260906174543 75 101 2.0 8.0 0.00 0.00 0.00 66 1016.0
20260906173050 75 345 0.0 6.0 0.00 0.00 0.00 64 1016.1
20260906171540 76 83 2.0 7.0 0.00 0.00 0.00 66 1016.1
20260906170042 75 143 1.0 7.0 0.00 0.00 0.00 68 1016.1
20260906164538 74 327 4.0 15.0 0.00 0.00 0.00 66 1016.2
20260906163037 73 316 3.0 8.0 0.00 0.00 0.00 68 1016.2
20260906161535 72 5 1.0 7.0 0.00 0.00 0.00 71 1016.2
20260906160040 74 74 3.0 6.0 0.00 0.00 0.00 69 1016.2
20260906154544 73 9 0.0 5.0 0.00 0.00 0.00 73 1016.2
20260906153038 73 8 1.0 4.0 0.00 0.00 0.00 70 1016.1
20260906151530 73 108 5.0 12.0 0.00 0.00 0.00 75 1016.1
20260906150029 74 74 1.0 7.0 0.00 0.00 0.00 72 1016.0
20260906144526 73 336 0.0 4.0 0.00 0.00 0.00 72 1015.8
20260906143032 72 328 3.0 6.0 0.00 0.00 0.00 71 1015.8
20260906141523 73 83 0.0 5.0 0.00 0.00 0.00 77 1015.7
20260906140032 71 328 1.0 4.0 0.00 0.00 0.00 75 1015.7
20260906134517 70 343 1.0 5.0 0.00 0.00 0.00 76 1015.7
20260906133014 70 36 1.0 4.0 0.00 0.00 0.00 77 1015.6
20260906131515 68 342 0.0 4.0 0.00 0.00 0.00 80 1015.5
20260906130028 69 309 0.0 1.0 0.00 0.00 0.00 80 1015.5
20260906124508 68 75 0.0 3.0 0.00 0.00 0.00 81 1015.6
20260906123013 67 340 0.0 3.0 0.00 0.00 0.00 81 1015.5
20260906121506 68 34 0.0 2.0 0.00 0.00 0.00 82 1015.4
20260906120002 66 306 0.0 1.0 0.00 0.00 0.00 84 1015.1
20260906114501 66 285 0.0 0.0 0.00 0.00 0.00 87 1015.0
20260906113200 62 285 0.0 0.0 0.00 0.00 0.00 91 1015.0
20260906111557 59 285 0.0 1.0 0.00 0.00 0.00 95 1014.7
20260906110054 58 285 0.0 1.0 0.00 0.00 0.00 95 1014.5
20260906104553 58 285 0.0 0.0 0.00 0.00 0.00 95 1014.5
20260906103055 58 285 0.0 1.0 0.00 0.00 0.00 94 1014.4
20260906101552 58 285 0.0 1.0 0.00 0.00 0.00 94 1014.4
20260906100049 58 285 0.0 0.0 0.00 0.00 0.00 94 1014.2
20260906094552 58 285 0.0 0.0 0.00 0.00 0.00 94 1013.9
20260906093056 59 285 0.0 0.0 0.00 0.00 0.00 93 1013.8
20260906091547 60 285 0.0 0.0 0.00 0.00 0.00 92 1013.7
20260906090046 60 310 0.0 2.0 0.00 0.00 0.00 94 1013.5
20260906084543 59 257 0.0 0.0 0.00 0.00 0.00 92 1013.4
20260906083044 60 254 0.0 2.0 0.00 0.00 0.00 93 1013.2
20260906081542 60 277 1.0 3.0 0.00 0.00 0.00 92 1013.0
20260906080036 61 268 1.0 3.0 0.00 0.00 0.00 91 1013.0
20260906074539 63 314 0.0 1.0 0.00 0.00 0.00 86 1013.0
20260906073038 63 323 0.0 1.0 0.00 0.00 0.00 85 1012.9
20260906071551 63 307 0.0 1.0 0.00 0.00 0.00 85 1012.9
20260906070037 64 308 0.0 1.0 0.00 0.00 0.00 84 1013.0
20260906064537 64 318 0.0 2.0 0.00 0.00 0.00 84 1013.1
20260906063031 0 0.0 0.0 0.00 0.00 0.00 1013.0
20260906061527 0 0.0 0.0 0.00 0.00 0.00 1012.8
20260906060022 62 311 0.0 0.0 0.00 0.00 0.00 89 1013.0
20260906054522 61 314 0.0 0.0 0.00 0.00 0.00 91 1013.2
20260906053025 62 314 0.0 0.0 0.00 0.00 0.00 86 1013.3
20260906051516 0 0.0 0.0 0.00 0.00 0.00 1013.3
20260906050035 0 0.0 0.0 0.00 0.00 0.00 1013.3
20260906044508 0 0.0 0.0 0.00 0.00 0.00 1013.4
20260906043008 62 269 0.0 1.0 0.00 0.00 0.00 88 1013.5
20260906041502 62 336 0.0 1.0 0.00 0.00 0.00 88 1013.6
20260906040100 62 337 0.0 0.0 0.00 0.00 0.00 87 1013.5
20260906034558 63 336 0.0 0.0 0.00 0.00 0.00 86 1013.3
20260906033057 63 337 0.0 0.0 0.00 0.00 0.00 87 1013.3
20260906031556 63 337 0.0 1.0 0.00 0.00 0.00 86 1013.2
20260906030112 63 337 0.0 1.0 0.00 0.00 0.00 86 1013.2
20260906024553 64 337 0.0 0.0 0.00 0.00 0.00 85 1012.9
20260906023053 64 337 0.0 1.0 0.00 0.00 0.00 86 1012.7
20260906021606 64 356 0.0 0.0 0.00 0.00 0.00 85 1012.6
20260906020047 64 357 0.0 1.0 0.00 0.00 0.00 85 1012.5
20260906014544 66 28 0.0 1.0 0.00 0.00 0.00 81 1012.4
20260906013044 66 358 0.0 1.0 0.00 0.00 0.00 78 1012.1
20260906011542 67 1 0.0 0.0 0.00 0.00 0.00 78 1012.1
20260906010042 67 1 0.0 1.0 0.00 0.00 0.00 79 1011.9
20260906004542 67 1 0.0 1.0 0.00 0.00 0.00 78 1011.8
20260906003038 68 1 0.0 1.0 0.00 0.00 0.00 77 1011.7
20260906001535 69 1 0.0 1.0 0.00 0.00 0.00 74 1011.5
20260906000034 70 1 0.0 0.0 0.00 0.00 0.00 70 1011.2
20260905234535 70 270 0.0 0.0 0.00 0.00 0.00 74 1011.2
20260905233036 74 283 0.0 3.0 0.00 0.00 0.00 68 1011.1
20260905231534 0 0.0 0.0 0.00 0.00 0.00 1011.0
20260905230030 77 321 0.0 4.0 0.00 0.00 0.00 57 1010.9
20260905224530 77 311 0.0 3.0 0.00 0.00 0.00 56 1010.8
20260905223030 78 318 2.0 4.0 0.00 0.00 0.00 53 1010.8
20260905221527 0 0.0 0.0 0.00 0.00 0.00 1010.7
20260905220027 79 72 0.0 4.0 0.00 0.00 0.00 55 1010.6
20260905214520 79 16 0.0 8.0 0.00 0.00 0.00 55 1010.7
20260905213022 79 346 2.0 8.0 0.00 0.00 0.00 55 1010.6
20260905211519 79 343 4.0 9.0 0.00 0.00 0.00 54 1010.5
20260905210014 78 34 3.0 6.0 0.00 0.00 0.00 63 1010.4
20260905204516 78 313 2.0 10.0 0.00 0.00 0.00 61 1010.6
20260905203016 78 338 5.0 12.0 0.00 0.00 0.00 62 1010.6
20260905201514 78 316 4.0 12.0 0.00 0.00 0.00 63 1010.7
20260905200021 77 11 2.0 11.0 0.00 0.00 0.00 64 1010.8
20260905194513 79 80 3.0 7.0 0.00 0.00 0.00 55 1010.7
20260905193025 78 1 1.0 6.0 0.00 0.00 0.00 59 1010.8
20260905191512 78 359 2.0 8.0 0.00 0.00 0.00 58 1010.8
20260905190014 0 0.0 0.0 0.00 0.00 0.00 1010.9
20260905184508 0 0.0 0.0 0.00 0.00 0.00 1011.0
20260905183001 0 0.0 0.0 0.00 0.00 0.00 1011.1
20260905181557 0 313 2.0 0.0 0.00 0.00 0.00 1011.3